Hourly Weather Murivka

Today, 27 November, Friday

Time Temperature Precipitation Wind Pressure Humidity
00:00 0°C° 0 mm 3 mps 753 mmHg 91%
01:00 -1°C° 0 mm 4 mps 753 mmHg 89%
02:00 -1°C° 0 mm 4 mps 753 mmHg 91%
03:00 -1°C° 0 mm 4 mps 752 mmHg 90%
04:00 -2°C° 0 mm 4 mps 752 mmHg 89%
05:00 -2°C° 0 mm 4 mps 752 mmHg 88%
06:00 -2°C° 0 mm 4 mps 751 mmHg 88%
07:00 -2°C° 0 mm 4 mps 751 mmHg 89%
08:00 -3°C° 0 mm 4 mps 751 mmHg 90%
09:00 -2°C° 0 mm 4 mps 751 mmHg 88%
10:00 -1°C° 0 mm 5 mps 751 mmHg 85%
11:00 0°C° 0 mm 5 mps 751 mmHg 82%
12:00 0°C° 0 mm 5 mps 751 mmHg 83%
13:00 0°C° 0 mm 5 mps 751 mmHg 84%
14:00 +1°C° 0 mm 5 mps 751 mmHg 84%
15:00 +1°C° 0.2 mm 5 mps 751 mmHg 86%
16:00 0°C° 0.2 mm 4 mps 751 mmHg 88%
17:00 0°C° 0.2 mm 4 mps 751 mmHg 90%
18:00 0°C° 0 mm 4 mps 751 mmHg 90%
19:00 0°C° 0 mm 4 mps 751 mmHg 90%
20:00 0°C° 0 mm 5 mps 751 mmHg 89%
21:00 +1°C° 0 mm 5 mps 751 mmHg 90%
22:00 +1°C° 0 mm 5 mps 751 mmHg 90%
23:00 +1°C° 0 mm 5 mps 751 mmHg 91%

Tomorrow, 28 November, Saturday

Time Temperature Precipitation Wind Pressure Humidity
00:00 0°C° 0 mm 4 mps 752 mmHg 92%
01:00 +1°C° 0 mm 3 mps 752 mmHg 93%
02:00 0°C° 0 mm 3 mps 752 mmHg 94%
03:00 0°C° 0 mm 3 mps 752 mmHg 95%
04:00 +1°C° 0 mm 2 mps 752 mmHg 95%
05:00 -1°C° 0 mm 2 mps 752 mmHg 95%
06:00 -1°C° 0 mm 2 mps 752 mmHg 95%
07:00 -1°C° 0 mm 2 mps 752 mmHg 95%
08:00 +1°C° 0 mm 2 mps 753 mmHg 95%
09:00 +1°C° 0 mm 2 mps 753 mmHg 92%
10:00 +2°C° 0 mm 2 mps 753 mmHg 89%
11:00 +3°C° 0 mm 2 mps 753 mmHg 87%
12:00 +3°C° 0.1 mm 2 mps 753 mmHg 87%
13:00 +3°C° 0.1 mm 2 mps 753 mmHg 87%
14:00 +4°C° 0.1 mm 1 mps 753 mmHg 88%
15:00 +3°C° 0 mm 2 mps 753 mmHg 90%
16:00 +2°C° 0 mm 2 mps 753 mmHg 92%
17:00 +2°C° 0 mm 2 mps 753 mmHg 95%
18:00 +1°C° 0 mm 2 mps 753 mmHg 95%
19:00 +1°C° 0 mm 2 mps 754 mmHg 95%
20:00 +2°C° 0 mm 1 mps 754 mmHg 95%
21:00 +2°C° 0 mm 1 mps 754 mmHg 95%
22:00 +2°C° 0 mm 1 mps 754 mmHg 95%
23:00 +2°C° 0 mm 1 mps 754 mmHg 94%

Day after tomorrow, 29 November, Sunday

Time Temperature Precipitation Wind Pressure Humidity
00:00 +2°C° 0 mm 1 mps 754 mmHg 95%
01:00 +2°C° 0 mm 1 mps 754 mmHg 95%
02:00 +2°C° 0 mm 1 mps 754 mmHg 96%
03:00 +2°C° 0.3 mm 1 mps 753 mmHg 96%
04:00 +1°C° 0.3 mm 2 mps 753 mmHg 97%
05:00 +2°C° 0.3 mm 2 mps 753 mmHg 97%
06:00 +2°C° 0.7 mm 2 mps 753 mmHg 97%
07:00 +2°C° 0.7 mm 2 mps 752 mmHg 97%
08:00 +2°C° 0.7 mm 2 mps 752 mmHg 97%
09:00 +2°C° 0.7 mm 2 mps 752 mmHg 97%
10:00 +2°C° 0.7 mm 2 mps 752 mmHg 97%
11:00 +3°C° 0.7 mm 1 mps 752 mmHg 97%
12:00 +3°C° 0.2 mm 1 mps 752 mmHg 97%
13:00 +3°C° 0.2 mm 1 mps 752 mmHg 97%
14:00 +3°C° 0.2 mm 1 mps 752 mmHg 97%
15:00 +3°C° 0.1 mm 1 mps 752 mmHg 97%
16:00 +3°C° 0.1 mm 1 mps 752 mmHg 97%
17:00 +3°C° 0.1 mm 1 mps 753 mmHg 97%
18:00 +3°C° 0.1 mm 1 mps 753 mmHg 97%
19:00 +3°C° 0.1 mm 1 mps 753 mmHg 97%
20:00 +3°C° 0.1 mm 1 mps 754 mmHg 97%
21:00 +2°C° 0 mm 1 mps 754 mmHg 96%
22:00 +1°C° 0 mm 2 mps 754 mmHg 96%
23:00 +1°C° 0 mm 2 mps 754 mmHg 95%

30 November, Monday

Time Temperature Precipitation Wind Pressure Humidity
00:00 +1°C° 0 mm 2 mps 755 mmHg 95%
01:00 +1°C° 0 mm 2 mps 755 mmHg 94%
02:00 +1°C° 0 mm 2 mps 756 mmHg 94%
03:00 +2°C° 0 mm 1 mps 756 mmHg 92%
04:00 +1°C° 0 mm 1 mps 756 mmHg 91%
05:00 +1°C° 0 mm 1 mps 756 mmHg 90%
06:00 +1°C° 0 mm 1 mps 756 mmHg 89%
07:00 +1°C° 0 mm 1 mps 757 mmHg 88%
08:00 0°C° 0 mm 1 mps 757 mmHg 87%
09:00 +1°C° 0 mm 1 mps 758 mmHg 83%
10:00 +1°C° 0 mm 0 mps 758 mmHg 78%
11:00 +1°C° 0 mm 0 mps 758 mmHg 74%
12:00 +1°C° 0 mm 0 mps 758 mmHg 73%
13:00 +1°C° 0 mm 0 mps 758 mmHg 71%
14:00 +2°C° 0 mm 0 mps 759 mmHg 70%
15:00 +2°C° 0 mm 1 mps 759 mmHg 73%
16:00 +2°C° 0 mm 1 mps 759 mmHg 76%
17:00 +1°C° 0 mm 1 mps 759 mmHg 79%
18:00 +1°C° 0 mm 1 mps 759 mmHg 80%
19:00 +1°C° 0 mm 1 mps 760 mmHg 82%
20:00 -1°C° 0 mm 2 mps 760 mmHg 83%
21:00 -1°C° 0.1 mm 2 mps 760 mmHg 86%
22:00 -1°C° 0.1 mm 2 mps 760 mmHg 89%
23:00 -1°C° 0.1 mm 2 mps 760 mmHg 92%

1 December, Tuesday

Time Temperature Precipitation Wind Pressure Humidity
00:00 -1°C° 0.1 mm 2 mps 760 mmHg 92%
01:00 -1°C° 0.1 mm 2 mps 760 mmHg 92%
02:00 -1°C° 0.1 mm 2 mps 760 mmHg 93%
03:00 -1°C° 0.2 mm 3 mps 760 mmHg 94%
04:00 -2°C° 0.2 mm 3 mps 760 mmHg 94%
05:00 -2°C° 0.2 mm 3 mps 760 mmHg 95%
06:00 -2°C° 0.4 mm 3 mps 760 mmHg 95%
07:00 -2°C° 0.4 mm 3 mps 760 mmHg 96%
08:00 -2°C° 0.4 mm 3 mps 760 mmHg 97%
09:00 -1°C° 0.3 mm 3 mps 760 mmHg 97%
10:00 -1°C° 0.3 mm 3 mps 760 mmHg 97%
11:00 -1°C° 0.3 mm 3 mps 760 mmHg 97%
12:00 0°C° 0.2 mm 3 mps 759 mmHg 97%
13:00 +1°C° 0.2 mm 2 mps 759 mmHg 98%
14:00 +1°C° 0.2 mm 2 mps 759 mmHg 99%
15:00 +1°C° 0.2 mm 2 mps 759 mmHg 98%
16:00 0°C° 0.2 mm 3 mps 759 mmHg 98%
17:00 0°C° 0.2 mm 3 mps 759 mmHg 98%
18:00 0°C° 0.1 mm 3 mps 759 mmHg 96%
19:00 0°C° 0.1 mm 3 mps 759 mmHg 95%
20:00 0°C° 0.1 mm 3 mps 759 mmHg 93%
21:00 0°C° 0.1 mm 3 mps 758 mmHg 93%
22:00 -1°C° 0.1 mm 3 mps 758 mmHg 92%
23:00 -1°C° 0.1 mm 3 mps 758 mmHg 91%

2 December, Wednesday

Time Temperature Precipitation Wind Pressure Humidity
00:00 -1°C° 0.2 mm 3 mps 758 mmHg 93%
01:00 -2°C° 0.2 mm 4 mps 758 mmHg 95%
02:00 -2°C° 0.2 mm 4 mps 758 mmHg 96%
03:00 -3°C° 0.2 mm 4 mps 758 mmHg 96%
04:00 -3°C° 0.2 mm 4 mps 758 mmHg 97%
05:00 -3°C° 0.2 mm 4 mps 758 mmHg 97%
06:00 -3°C° 0.1 mm 4 mps 758 mmHg 96%
07:00 -3°C° 0.1 mm 4 mps 758 mmHg 96%
08:00 -3°C° 0.1 mm 4 mps 759 mmHg 96%
09:00 -2°C° 0.1 mm 4 mps 759 mmHg 96%
10:00 -2°C° 0.1 mm 4 mps 759 mmHg 96%
11:00 -2°C° 0.1 mm 4 mps 759 mmHg 96%
12:00 -2°C° 0.1 mm 4 mps 759 mmHg 96%
13:00 -2°C° 0.1 mm 4 mps 759 mmHg 96%
14:00 -2°C° 0.1 mm 4 mps 759 mmHg 96%
15:00 -2°C° 0 mm 4 mps 760 mmHg 96%
16:00 -2°C° 0 mm 4 mps 760 mmHg 96%
17:00 -1°C° 0 mm 3 mps 760 mmHg 95%
18:00 -2°C° 0 mm 3 mps 760 mmHg 95%
19:00 -3°C° 0 mm 4 mps 760 mmHg 96%
20:00 -3°C° 0 mm 4 mps 761 mmHg 96%
21:00 -3°C° 0.1 mm 4 mps 761 mmHg 96%
22:00 -3°C° 0.1 mm 4 mps 761 mmHg 96%
23:00 -3°C° 0.1 mm 4 mps 761 mmHg 96%
Show more

We Need Your Consent

Meteoprog and our Service Providers may store and access personal data such as cookies, device identifiers or other similar technologies on your device and process such data to personalise content and ads, as well as provide social media features and to analyse the traffic.

  • Store and/or access information on your device

    Cookies, device identifiers or other information can be stored or accessed on your device for the purposes indicated above.

  • Personalised ads and content, ad and content measurement, audience insights, and products development

    Ads and content can be personalised based on a profile. More data can be added to better personalise ads and content. Ad and content performance can be measured. Insights about the audience who saw the ads and content can be derived. Such data can be used to develop or improve user’s experience, systems and software.

By clicking ‘I Agree’ you will allow the use of indicated cookies, device identifiers, web beacons or other similar technologies. Your settings can be changed in the browser on your device.

For certain purposes, legitimate interests may be relied on, rather than consent. You can read more about this in our Privacy and Cookie Policy.